Location: Unspecified
(40.7945°N, 0.0000°E)
Time: 20:02:55
(UTC+00:00)

Explorer 7 - Pass Details

Date: 26 June 2021
Orbit: 484 x 676 km, 50.3° (Epoch: 30 July)

Event Time Altitude Azimuth Distance (km) Brightness Sun altitude
Rises 22:43:53 0° 302° (WNW) 3,025 11.4 -23.3°
Reaches altitude 10° 22:46:26 10° 311° (NW) 2,099 10.6 -23.5°
Maximum altitude 22:50:56 36° 18° (NNE) 1,034 8.6 -23.7°
Enters shadow 22:54:04 17° 78° (ENE) 1,625 9.1 -23.9°
